#timestamp,LO_Frequency,Hit,StdDev 
1455631215.0,286046998.4,N
1455631215.9,286046998.4,N
1455631235.8,286047003.5,N
1455631255.6,286047003.1,N
1455631275.4,286047005.6,N
1455631295.3,286047004.9,N
1455631315.1,286047004.3,N
1455631316.0,286047004.3,N
1455631335.8,286047001.5,N
1455631355.7,286047003.1,N
1455631375.5,286047002.1,N
1455631395.3,286047000.8,N
1455631415.1,286046999.2,N
1455631435.9,286046998.6,N
1455631455.7,286046999.5,N
1455631475.5,286046993.6,N
1455631495.4,286046997.9,N
1455631515.2,286046997.3,N
1455631535.0,286046992.0,N
1455631535.9,286046992.0,N
1455631555.8,286046994.1,N
1455631575.6,286046991.8,N
1455631595.4,286046996.1,N
1455631615.3,286046998.6,N
1455631635.1,286046999.2,N
1455631636.0,286046999.2,N
1455631655.8,286046996.5,N
1455631675.7,286046995.5,N
1455631695.5,286046993.5,N
1455631715.3,286046994.9,N
1455631735.2,286046994.6,N
1455631755.9,286046990.3,N
1455631775.7,286046993.1,N
1455631795.5,286046993.5,N
1455631815.4,286046993.0,N
1455631835.2,286046990.4,N
1455631855.0,286046993.8,N
1455631855.9,286046993.8,N
1455631875.8,286046993.4,N
1455631895.6,286046994.3,N
1455631915.4,286046994.1,N
1455631935.3,286046996.1,N
1455631955.1,286046999.0,N
1455631975.8,286046996.5,N
1455631995.7,286046997.5,N
1455632015.5,286046996.0,N
1455632035.3,286046993.4,N
1455632055.2,286046993.7,N
1455632075.9,286046994.9,N
1455632095.7,286046998.1,N
1455632115.6,286046998.7,N
1455632135.4,286046999.0,N
1455632155.2,286046996.3,N
1455632175.0,286046994.1,N
1455632176.0,286046994.1,N
1455632195.8,286046998.0,N
1455632215.6,286046996.1,N
1455632235.4,286046993.8,N
1455632255.3,286046996.1,N
1455632275.1,286046996.8,N
1455632295.8,286046997.8,N
1455632315.7,286047002.8,N
1455632335.5,286047000.1,N
1455632355.3,286047002.8,N
1455632375.2,286047002.6,N
1455632395.9,286047001.2,N
1455632415.7,286047000.8,N
1455632435.6,286047001.6,N
1455632455.4,286047000.0,N
1455632475.2,286047001.6,N
1455632495.1,286047000.1,N
1455632496.0,286047000.1,N
1455632515.8,286047003.2,N
1455632535.6,286047005.7,N
1455632555.5,286047007.6,N
1455632575.3,286047006.8,N
1455632595.1,286047006.8,N
1455632615.8,286047010.8,N
1455632635.7,286047007.9,N
1455632655.5,286047006.3,N
1455632675.3,286047011.9,N
1455632695.2,286047007.7,N
1455632715.9,286047011.7,N
1455632735.7,286047010.9,N
1455632755.6,286047009.3,N
1455632775.4,286047009.4,N
1455632795.2,286047013.8,N
1455632815.1,286047011.5,N
1455632816.0,286047011.5,N
1455632835.8,286047011.5,N
1455632855.6,286047013.1,N
1455632875.5,286047016.1,Y
1455632895.3,286047011.4,P
1455632915.1,286047011.9,P
1455632935.9,286047011.4,P
1455632955.7,286047006.3,N
1455632975.5,286047004.8,N
1455632995.3,286047001.6,N
1455633015.2,286047002.9,N
1455633035.0,286047001.9,N
1455633035.9,286047001.9,N
1455633055.7,286047002.7,N
1455633075.6,286047000.8,N
1455633095.4,286047002.8,N
1455633115.2,286047002.0,N
1455633135.1,286047000.0,N
1455633136.0,286047000.0,N
1455633155.8,286047002.7,N
1455633175.6,286047000.4,N
1455633195.5,286047001.1,N
1455633215.3,286046996.8,N
1455633235.1,286046997.2,N
1455633255.9,286046995.6,N
1455633275.7,286046993.4,N
1455633295.5,286046992.4,N
1455633315.3,286046989.3,N
1455633335.2,286046990.3,N
1455633355.0,286046990.3,N
1455633355.9,286046990.3,N
1455633375.7,286046989.1,N
1455633395.6,286046989.4,N
1455633415.4,286046988.2,N
1455633435.2,286046991.5,N
1455633455.1,286046992.4,N
1455633456.0,286046992.4,N
1455633475.8,286046994.0,N
1455633495.6,286046990.4,N
1455633515.5,286046992.8,N
1455633535.3,286046993.8,N
1455633555.1,286046991.9,N
1455633575.9,286046990.2,N
1455633595.7,286046989.6,N
1455633615.5,286046993.2,N
1455633635.4,286046991.1,N
1455633655.2,286046991.1,N
1455633675.0,286046991.7,N
1455633675.9,286046991.7,N
1455633695.8,286046992.2,N
1455633715.6,286046988.6,Y
1455633735.4,286046995.2,P
1455633755.3,286046994.9,P
1455633775.1,286046995.0,P
1455633776.0,286046995.0,Y
1455633795.8,286047001.6,P
1455633815.7,286047002.1,N
1455633835.5,286047002.8,N
1455633855.3,286047002.0,N
1455633875.2,286047002.4,N
1455633895.9,286047001.9,N
1455633915.7,286047007.6,N
1455633935.6,286047003.4,N
1455633955.4,286047005.7,N
1455633975.2,286047004.7,N
1455633995.0,286047002.8,N
1455633995.9,286047002.8,N
1455634015.8,286046999.6,N
1455634035.6,286046997.3,N
1455634055.4,286046998.8,N
1455634075.3,286046996.5,N
1455634095.1,286046996.8,N
1455634115.8,286046995.1,N
1455634135.7,286046997.7,N
1455634155.5,286046995.0,N
1455634175.3,286046995.1,N
1455634195.2,286046992.2,N
1455634215.9,286046990.5,N
1455634235.7,286046989.1,N
1455634255.6,286046987.4,N
1455634275.4,286046989.5,N
1455634295.2,286046989.8,N
1455634315.0,286046989.5,N
1455634316.0,286046989.5,N
1455634335.8,286046985.5,N
1455634355.6,286046982.6,N
1455634375.4,286046982.0,N
1455634395.3,286046978.0,Y
1455634415.1,286046982.0,P
1455634435.8,286046978.5,P
1455634455.7,286046977.4,P
1455634475.5,286046977.9,Y
1455634495.3,286046993.6,P
1455634515.2,286046995.7,N
1455634535.0,286046996.4,N
1455634535.9,286046996.4,N
1455634555.7,286046994.4,N
1455634575.6,286046990.3,N
1455634595.4,286046993.4,N
1455634615.2,286046999.1,N
1455634635.1,286046999.9,N
1455634636.0,286046999.9,N
1455634655.8,286047005.5,N
1455634675.6,286047004.5,N
1455634695.5,286047008.5,N
1455634715.3,286047009.2,N
1455634735.1,286047007.9,N
1455634755.9,286047009.5,N
1455634775.7,286047011.0,N
1455634795.5,286047011.5,N
1455631215.6,286047000.2,N
1455631235.5,286047004.1,N
1455631255.3,286047006.1,N
1455631275.1,286047010.3,Y
1455631295.9,286047001.3,P
1455631315.7,286047000.2,N
1455631335.5,286046998.2,N
1455631355.3,286047000.0,N
1455631375.2,286047001.0,N
1455631395.0,286046999.3,N
1455631395.9,286046999.3,N
1455631415.7,286046997.4,N
1455631435.6,286046996.4,N
1455631455.4,286046993.3,Y
1455631475.2,286046997.3,P
1455631495.1,286047002.4,N
1455631496.0,286047002.4,N
1455631515.8,286046996.7,N
1455631535.6,286047001.0,N
1455631555.5,286047002.5,N
1455631575.3,286047002.5,N
1455631595.1,286046999.1,N
1455631615.9,286046991.9,Y
1455631635.7,286046988.6,P
1455631655.5,286046988.2,N
1455631675.4,286046985.1,N
1455631695.2,286046983.3,N
1455631715.0,286046983.0,N
1455631715.9,286046983.0,N
1455631735.8,286046980.9,Y
1455631755.6,286046988.8,P
1455631775.4,286046987.3,P
1455631795.3,286046986.0,P
1455631815.1,286046983.7,Y
1455631816.0,286046983.7,P
1455631835.8,286046995.3,N
1455631855.7,286046999.1,N
1455631875.5,286046999.1,N
1455631895.3,286046997.2,N
1455631915.2,286046999.4,N
1455631935.9,286046999.6,N
1455631955.7,286046996.9,N
1455631975.5,286046999.3,N
1455631995.4,286047002.4,N
1455632015.2,286047001.8,N
1455632035.0,286047001.5,N
1455632035.9,286047001.5,N
1455632055.8,286047007.6,N
1455632075.6,286047008.6,N
1455632095.4,286047006.7,N
1455632115.3,286047006.2,N
1455632135.1,286047008.2,N
1455632136.0,286047008.2,N
1455632155.8,286047010.1,N
1455632175.7,286047013.6,N
1455632195.5,286047014.9,N
1455632215.3,286047017.4,N
1455632235.2,286047018.7,N
1455632255.9,286047017.7,N
1455632275.7,286047017.6,N
1455632295.5,286047015.7,N
1455632315.4,286047018.8,N
1455632335.2,286047016.6,N
1455632355.0,286047017.3,N
1455632355.9,286047017.3,N
1455632375.8,286047019.3,N
1455632395.6,286047021.7,N
1455632415.4,286047020.4,N
1455632435.3,286047019.5,N
1455632455.1,286047016.9,N
1455632456.0,286047016.9,N
1455632475.8,286047013.0,N
1455632495.7,286047016.5,N
1455632515.5,286047014.8,N
1455632535.3,286047013.0,N
1455632555.2,286047008.1,N
1455632575.9,286047006.3,N
1455632595.7,286047006.6,N
1455632615.6,286047010.6,N
1455632635.4,286047011.8,N
1455632655.2,286047011.7,N
1455632675.0,286047011.8,N
1455632675.9,286047011.8,N
1455632695.8,286047010.2,N
1455632715.6,286047011.2,N
1455632735.5,286047013.3,Y
1455632755.3,286047001.0,P
1455632775.1,286047001.2,N
1455632795.8,286046996.1,N
1455632815.7,286046994.1,N
1455632835.5,286046986.9,N
1455632855.3,286046987.3,N
1455632875.2,286046986.9,N
1455632895.9,286046986.9,N
1455632915.7,286046990.8,N
1455632935.6,286046987.3,N
1455632955.4,286046986.9,N
1455632975.2,286046988.0,N
1455632995.1,286046986.2,N
1455632996.0,286046986.2,N
1455633015.8,286046987.6,N
1455633035.6,286046985.6,N
1455633055.4,286046987.9,N
1455633075.3,286046988.3,N
1455633095.1,286046986.7,N
1455633115.8,286046982.3,N
1455633135.7,286046981.6,N
1455633155.5,286046979.7,N
1455633175.3,286046979.3,N
1455633195.2,286046983.6,N
1455633215.9,286046979.8,N
1455633235.7,286046975.1,Y
1455633255.6,286046985.8,P
1455633275.4,286046986.3,P
1455633295.2,286046984.4,P
1455633315.1,286046982.1,Y
1455633316.0,286046982.1,P
1455633335.8,286047001.0,N
1455633355.6,286046999.4,N
1455633375.5,286046997.2,N
1455633395.3,286046997.7,N
1455633415.1,286046996.8,N
1455633435.9,286046997.3,N
1455633455.7,286046996.9,N
1455633475.5,286047001.2,N
1455633495.4,286046998.4,N
1455633515.2,286046996.9,N
1455633535.0,286047000.6,N
1455633535.9,286047000.6,N
1455633555.8,286046998.9,N
1455633575.6,286046995.0,N
1455633595.4,286046996.2,N
1455633615.2,286046993.4,N
1455633635.1,286046999.5,N
1455633636.0,286046999.5,N
1455633655.8,286046999.2,N
1455633675.6,286046998.1,N
1455633695.5,286047001.0,N
1455633715.3,286047001.2,N
1455633735.1,286046996.9,N
1455633755.9,286046996.5,N
1455633775.7,286046995.1,N
1455633795.5,286046993.6,N
1455633815.4,286046993.1,N
1455633835.2,286046992.7,N
1455633855.0,286046996.1,N
1455633855.9,286046996.1,N
1455633875.8,286046996.7,N
1455633895.6,286046997.9,N
1455633915.4,286046993.5,N
1455633935.3,286046991.4,Y
1455633955.1,286046990.9,P
1455633956.0,286046990.9,N
1455633975.8,286046987.2,P
1455633995.7,286046989.0,Y
1455634015.5,286046997.7,P
1455634035.3,286046995.9,N
1455634055.2,286046994.3,N
1455634075.9,286046994.0,N
1455634095.7,286046996.0,N
1455634115.5,286046998.0,N
1455634135.4,286046994.6,N
1455634155.2,286046990.2,Y
1455634175.0,286046999.2,P
1455634176.0,286046999.2,N
1455634195.8,286046996.9,N
1455634215.6,286046996.1,N
1455634235.5,286046993.7,Y
1455634255.3,286046997.3,P
1455634275.1,286046992.4,P
1455634295.8,286046993.8,N
1455634315.7,286046994.7,N
1455634335.5,286046995.3,N
1455634355.3,286046995.3,N
1455634375.2,286046998.2,N
1455634395.9,286046999.7,N
1455634415.7,286047002.8,N
1455634435.6,286047003.7,N
1455634455.4,286047002.9,N
1455634475.2,286047003.1,N
1455634495.1,286047002.9,N
1455634496.0,286047002.9,N
1455634515.8,286047003.2,N
1455634535.6,286047004.1,N
1455634555.5,286047002.0,N
1455634575.3,286047003.3,N
1455634595.1,286047001.4,N
1455634615.8,286047003.3,N
1455634635.7,286047004.3,N
1455634655.5,286047003.1,N
1455634675.3,286047002.5,N
1455634695.2,286047001.7,N
1455634715.9,286047004.1,N
1455634735.7,286047002.9,N
1455634755.6,286046999.8,N
1455634775.4,286047002.7,N
1455634795.2,286047000.1,N
